Location: Sedan
(39.2354°N, 78.5718°W)
Time: 13:32:54
(UTC+00:00)

Envisat - Pass Details

Date: 03 December 2021
Orbit: 764 x 766 km, 98.2° (Epoch: 19 January)

Event Time Altitude Azimuth Distance (km) Brightness Sun altitude
Rises 09:31:34 0° 23° (NNE) 3,239 6.5 -31.4°
Reaches altitude 10° 09:34:07 10° 33° (NNE) 2,308 5.8 -30.9°
Maximum altitude 09:38:41 33° 97° (E) 1,267 4.6 -30.0°
Drops below altitude 10° 09:43:13 10° 161° (SSE) 2,293 5.7 -29.1°
Sets 09:45:43 0° 170° (S) 3,214 6.4 -28.6°
